EW6202 Weather Reports


time (UTC)temp
F
wind
direction
speed
knots
gust
knots
rain 1hr
in
rain 24hr
in
rain mn
in
humidity
%
barometer
mb
20260503053033 78 157 1.7 7.8 0.00 0.00 0.00 83 1015.2
20260503051531 78 125 4.3 8.7 0.00 0.00 0.00 83 1015.2
20260503050029 78 137 3.5 8.7 0.00 0.00 0.00 83 1015.2
20260503044535 78 127 4.3 7.8 0.00 0.00 0.00 83 1015.3
20260503043025 78 139 0.9 5.2 0.00 0.00 0.00 82 1015.4
20260503041524 78 153 0.9 4.3 0.00 0.00 0.00 82 1015.6
20260503040027 78 131 0.9 6.1 0.00 0.00 0.00 81 1015.5
20260503034520 79 117 2.6 7.8 0.00 0.00 0.00 80 1015.4
20260503033019 79 121 4.3 10.4 0.00 0.00 0.00 80 1015.3
20260503031516 80 146 5.2 11.3 0.00 0.00 0.00 79 1015.2
20260503030015 80 141 4.3 10.4 0.00 0.00 0.00 80 1015.1
20260503024514 80 157 1.7 7.8 0.00 0.00 0.00 80 1015.0
20260503023012 80 101 1.7 7.0 0.00 0.00 0.00 81 1014.9
20260503021511 80 140 4.3 9.6 0.00 0.00 0.00 80 1014.6
20260503020011 81 144 3.5 10.4 0.00 0.00 0.00 80 1014.4
20260503014510 81 182 3.5 8.7 0.00 0.00 0.00 81 1014.2
20260503013110 81 155 1.7 7.8 0.00 0.00 0.00 80 1013.9
20260503011508 81 110 6.1 9.6 0.00 0.00 0.00 81 1013.5
20260503010011 82 123 4.3 9.6 0.00 0.00 0.00 81 1013.4
20260503004508 82 117 3.5 9.6 0.00 0.00 0.00 80 1013.3
20260503003007 83 154 6.1 12.2 0.00 0.00 0.00 79 1013.0
20260503001512 83 158 7.8 12.2 0.00 0.00 0.00 79 1012.8
20260503000007 84 93 3.5 12.2 0.00 0.00 0.00 78 1012.4
20260502234510 85 132 6.1 13.9 0.00 0.00 0.00 77 1012.1
20260502233014 85 125 3.5 9.6 0.00 0.00 0.00 76 1011.9
20260502231508 86 134 6.1 11.3 0.00 0.00 0.00 74 1011.7
20260502230004 86 126 5.2 9.6 0.00 0.00 0.00 73 1011.5
20260502224503 87 105 5.2 10.4 0.00 0.00 0.00 72 1011.3
20260502223003 88 175 3.5 11.3 0.00 0.00 0.00 71 1011.2
20260502221502 88 135 5.2 12.2 0.00 0.00 0.00 70 1010.9
20260502220002 89 126 6.1 11.3 0.00 0.00 0.00 68 1010.9
20260502214633 90 116 6.1 13.0 0.00 0.00 0.00 66 1010.7
20260502213101 91 157 6.1 11.3 0.00 0.00 0.00 64 1010.6
20260502211606 91 130 6.1 13.0 0.00 0.00 0.00 64 1010.4
20260502210058 92 136 5.2 12.2 0.00 0.00 0.00 64 1010.4
20260502204558 92 151 3.5 14.8 0.00 0.00 0.00 63 1010.4
20260502203107 92 130 6.1 13.9 0.00 0.00 0.00 61 1010.4
20260502201606 92 88 7.0 12.2 0.00 0.00 0.00 61 1010.5
20260502200055 92 176 7.0 13.9 0.00 0.00 0.00 61 1010.8
20260502194559 92 148 7.0 15.6 0.00 0.00 0.00 60 1010.9
20260502193053 92 67 5.2 13.0 0.00 0.00 0.00 61 1010.8
20260502191551 92 158 6.1 13.0 0.00 0.00 0.00 62 1011.0
20260502190048 92 76 6.1 14.8 0.00 0.00 0.00 63 1011.2
20260502184546 91 145 7.8 17.4 0.00 0.00 0.00 62 1011.5
20260502183044 91 109 8.7 15.6 0.00 0.00 0.00 63 1011.8
20260502181540 91 128 9.6 14.8 0.00 0.00 0.00 63 1012.0
20260502163030 89 76 7.0 13.9 0.00 0.00 0.00 64 1013.7
20260502161523 89 148 7.0 15.6 0.00 0.00 0.00 65 1013.8
20260502151508 87 48 6.1 16.5 0.00 0.00 0.00 70 1014.3
20260502123029 80 117 5.2 11.3 0.00 0.00 0.00 85 1014.5
20260502121520 79 166 4.3 10.4 0.00 0.00 0.00 87 1014.6
20260502114516 77 140 2.6 11.3 0.00 0.00 0.00 90 1014.2
20260502113009 76 154 6.1 10.4 0.00 0.00 0.00 91 1014.0
20260502111504 75 103 6.1 13.0 0.00 0.00 0.00 93 1013.9
20260502110003 75 134 3.5 9.6 0.00 0.00 0.00 94 1013.4
20260502104556 74 128 3.5 7.8 0.00 0.00 0.00 96 1013.4
20260502103055 73 126 3.5 7.8 0.00 0.00 0.00 96 1013.2
20260502101613 73 112 2.6 7.0 0.00 0.00 0.00 96 1013.1
20260502100108 72 113 1.7 5.2 0.00 0.00 0.00 96 1013.0
20260502070040 75 92 1.7 6.1 0.00 0.00 0.00 94 1012.5
20260502064558 75 107 1.7 6.1 0.00 0.00 0.00 94 1012.5
20260502063035 75 89 1.7 6.1 0.00 0.00 0.00 94 1012.4
20260502061535 75 137 0.9 7.0 0.00 0.00 0.00 94 1012.4
20260502060043 75 141 1.7 6.1 0.00 0.00 0.00 94 1012.5
20260502054531 75 111 0.9 5.2 0.00 0.00 0.00 94 1012.6